TimeEST,TemperatureF,Dew PointF,Humidity,Sea Level PressureIn,VisibilityMPH,Wind Direction,Wind SpeedMPH,Gust SpeedMPH,PrecipitationIn,Events,Conditions,WindDirDegrees,DateUTC
12:53 AM,34.0,33.1,96,30.06,9.0,NNE,3.5,-,N/A,,Clear,30,2012-12-28 05:53:00
1:53 AM,36.0,33.1,89,30.07,10.0,NNE,3.5,-,N/A,,Clear,20,2012-12-28 06:53:00
2:53 AM,36.0,33.1,89,30.11,10.0,Calm,Calm,-,N/A,,Clear,0,2012-12-28 07:53:00
3:53 AM,34.0,32.0,92,30.11,10.0,Calm,Calm,-,N/A,,Clear,0,2012-12-28 08:53:00
4:53 AM,32.0,30.9,96,30.12,10.0,Calm,Calm,-,N/A,,Clear,0,2012-12-28 09:53:00
6:53 AM,33.1,30.0,89,30.15,10.0,NNE,6.9,-,N/A,,Clear,30,2012-12-28 11:53:00
7:53 AM,34.0,28.9,82,30.15,10.0,NE,5.8,-,N/A,,Clear,40,2012-12-28 12:53:00
8:53 AM,37.9,30.0,73,30.17,10.0,NE,9.2,-,N/A,,Clear,40,2012-12-28 13:53:00
9:53 AM,41.0,30.0,65,30.17,10.0,NE,5.8,-,N/A,,Clear,40,2012-12-28 14:53:00
11:53 AM,46.9,30.9,54,30.14,10.0,Calm,Calm,-,N/A,,Clear,0,2012-12-28 16:53:00
12:53 PM,51.1,32.0,48,30.11,10.0,Calm,Calm,-,N/A,,Mostly Cloudy,0,2012-12-28 17:53:00
1:53 PM,51.1,33.1,50,30.09,10.0,North,4.6,-,N/A,,Overcast,10,2012-12-28 18:53:00
2:53 PM,50.0,35.1,57,30.08,10.0,NNE,5.8,-,N/A,,Mostly Cloudy,20,2012-12-28 19:53:00
3:38 PM,50.0,33.8,54,30.08,10.0,Calm,Calm,-,N/A,,Scattered Clouds,0,2012-12-28 20:38:00
3:51 PM,50.0,35.6,58,30.07,10.0,ENE,4.6,-,N/A,,Mostly Cloudy,60,2012-12-28 20:51:00
3:53 PM,50.0,34.0,54,30.08,10.0,Calm,Calm,-,N/A,,Mostly Cloudy,0,2012-12-28 20:53:00
4:19 PM,50.0,35.6,58,30.06,10.0,ENE,4.6,-,N/A,,Scattered Clouds,60,2012-12-28 21:19:00
4:53 PM,48.9,36.0,61,30.06,10.0,ENE,4.6,-,N/A,,Clear,60,2012-12-28 21:53:00
5:53 PM,45.0,37.0,74,30.05,10.0,Calm,Calm,-,N/A,,Clear,0,2012-12-28 22:53:00
6:53 PM,45.0,37.9,76,30.07,10.0,North,3.5,-,N/A,,Clear,360,2012-12-28 23:53:00
7:53 PM,44.1,37.9,79,30.06,10.0,Calm,Calm,-,N/A,,Clear,0,2012-12-29 00:53:00
8:53 PM,44.1,39.0,82,30.04,10.0,NNE,3.5,-,N/A,,Clear,20,2012-12-29 01:53:00
9:53 PM,45.0,39.0,80,30.05,10.0,NNE,3.5,-,N/A,,Overcast,30,2012-12-29 02:53:00
10:53 PM,46.9,39.9,77,30.00,10.0,NE,5.8,-,N/A,,Overcast,50,2012-12-29 03:53:00
11:53 PM,46.9,39.9,77,29.98,10.0,NE,5.8,-,N/A,,Overcast,40,2012-12-29 04:53:00